Powrót do katalogu

STARLINK-36339

AktywnyŁącznośćVLEO
NORAD 67340·PAYLOAD·🇺🇸 United States

Wystrzelony Jan 9, 2026 z Cape Canaveral Space Force Station

Loading…

Następne Przeloty (najbliższe 24 godziny)

TLE

ŚwieżeSource: CelesTrak SupGP

Epoka: Sep 14, 2026, 23:17 UTC

1 67340C 26003G   26257.97062500  .00018545  00000+0  67177-3 0  2572
2 67340  42.9994 238.1053 0001167 257.2286  43.2631 15.27565380    10

Śledź STARLINK-36339 w czasie rzeczywistym z AllMySat

Download on the App Store